Location: Pitton
(51.0667°N, 1.7000°W)
Time: 12:35:39
(UTC+00:00)

Cosmos 2219 - Pass Details

Date: 17 September 2019
Orbit: 834 x 859 km, 71.1° (Epoch: 19 October)

Event Time Altitude Azimuth Distance (km) Brightness Sun altitude
Rises 20:58:52 0° 220° (SW) 3,425 6.4 -24.3°
Reaches altitude 10° 21:01:21 10° 224° (SW) 2,493 5.7 -24.6°
Maximum altitude 21:07:01 60° 305° (NW) 981 3.7 -25.2°
Drops below altitude 10° 21:12:43 10° 25° (NNE) 2,502 5.8 -25.9°
Sets 21:15:14 0° 29° (NNE) 3,440 6.5 -26.2°
